Terug naar catalogus

CZ-6A DEB

ActiefPO
NORAD 61828·DEBRIS·🇨🇳 China

Gelanceerd Aug 6, 2024 vanaf Taiyuan Satellite Launch Center

Loading…

Volgende Passages (komende 24 uur)

TLE

VersSource: Space-Track

Epoch: Sep 14, 2026, 10:46 UTC

1 61828U 24140ACU 26257.44893510  .00001464  00000-0  79963-3 0  9994
2 61828  88.9706 264.5334 0122091 336.1480  23.4073 14.07873949103052

Volg CZ-6A DEB in realtime met AllMySat

Download on the App Store